�������C�����ː����j�^�v���󋵏��
Date,Time,Cs137(Bq/L),Cs134(Bq/L),�S��(Bq/L)
2016/11/02,00:00,0.51,0.040,ND
2016/11/02,00:10,0.48,0.043,ND
2016/11/02,00:20,0.44,0.042,ND
2016/11/02,00:30,0.49,0.045,ND
2016/11/02,00:40,0.48,0.048,ND
2016/11/02,00:50,0.47,0.054,ND
2016/11/02,01:00,0.50,0.049,10
2016/11/02,01:10,0.50,0.064,9.5
2016/11/02,01:20,0.51,0.054,10
2016/11/02,01:30,0.49,0.057,ND
2016/11/02,01:40,0.51,0.052,ND
2016/11/02,01:50,0.51,0.051,ND
2016/11/02,02:00,0.50,0.058,ND
2016/11/02,02:10,0.49,0.060,ND
2016/11/02,02:20,0.50,0.056,ND
2016/11/02,02:30,0.51,0.050,ND
2016/11/02,02:40,0.53,0.051,ND
2016/11/02,02:50,0.53,0.050,ND
2016/11/02,03:00,0.54,0.047,ND
2016/11/02,03:10,0.53,0.043,ND
2016/11/02,03:20,0.55,0.039,ND
2016/11/02,03:30,0.56,0.048,ND
2016/11/02,03:40,0.53,0.054,ND
2016/11/02,03:50,0.53,0.054,ND
2016/11/02,04:00,0.52,0.052,ND
2016/11/02,04:10,0.55,0.051,ND
2016/11/02,04:20,0.51,0.060,ND
2016/11/02,04:30,0.52,0.055,ND
2016/11/02,04:40,0.53,0.053,ND
2016/11/02,04:50,0.53,0.060,ND
2016/11/02,05:00,0.53,0.052,ND
2016/11/02,05:10,0.55,0.045,ND
2016/11/02,05:20,0.56,0.045,ND
2016/11/02,05:30,0.56,0.036,ND
2016/11/02,05:40,0.55,0.038,ND
2016/11/02,05:50,0.53,0.040,ND
2016/11/02,06:00,0.51,0.056,ND
2016/11/02,06:10,0.48,0.059,ND
2016/11/02,06:20,0.46,0.066,ND
2016/11/02,06:30,0.47,0.068,ND
2016/11/02,06:40,0.48,0.068,ND
2016/11/02,06:50,0.49,0.059,ND
2016/11/02,07:00,0.49,0.063,ND
2016/11/02,07:10,0.51,0.053,ND
2016/11/02,07:20,0.51,0.051,ND
2016/11/02,07:30,0.51,0.053,ND
2016/11/02,07:40,0.51,0.050,ND
2016/11/02,07:50,0.51,0.051,ND
2016/11/02,08:00,0.53,0.041,ND
2016/11/02,08:10,0.49,0.053,ND
2016/11/02,08:20,0.49,0.052,ND
2016/11/02,08:30,0.50,0.043,ND
2016/11/02,08:40,0.50,0.049,ND
2016/11/02,08:50,0.51,0.044,ND
2016/11/02,09:00,0.53,0.042,ND
2016/11/02,09:10,0.53,0.041,ND
2016/11/02,09:20,0.56,0.038,ND
2016/11/02,09:30,0.56,0.045,ND
2016/11/02,09:40,0.57,0.036,ND
2016/11/02,09:50,0.56,0.039,ND
2016/11/02,10:00,0.56,0.037,ND
2016/11/02,10:10,0.59,0.037,ND
2016/11/02,10:20,0.58,0.054,ND
2016/11/02,10:30,0.59,0.047,ND
2016/11/02,10:40,0.60,0.047,ND
2016/11/02,10:50,0.61,0.054,ND
2016/11/02,11:00,0.61,0.057,ND
2016/11/02,11:10,0.61,0.054,ND
2016/11/02,11:20,0.64,0.044,ND
2016/11/02,11:30,0.65,0.049,ND
2016/11/02,11:40,0.65,0.055,ND
2016/11/02,11:50,0.64,0.065,ND
2016/11/02,12:00,0.64,0.070,ND
2016/11/02,12:10,0.61,0.075,ND
2016/11/02,12:20,0.59,0.088,ND
2016/11/02,12:30,0.53,0.097,ND
2016/11/02,12:40,0.51,0.096,ND
2016/11/02,12:50,0.53,0.081,ND
2016/11/02,13:00,0.51,0.079,ND
2016/11/02,13:10,0.53,0.068,ND
2016/11/02,13:20,0.56,0.054,ND
2016/11/02,13:30,0.58,0.049,ND
2016/11/02,13:40,0.62,0.043,ND
2016/11/02,13:50,0.61,0.048,ND
2016/11/02,14:00,0.64,0.043,ND
2016/11/02,14:10,0.64,0.049,ND
2016/11/02,14:20,0.63,0.044,ND
2016/11/02,14:30,0.63,0.047,ND
2016/11/02,14:40,0.62,0.053,ND
2016/11/02,14:50,0.61,0.048,ND
2016/11/02,15:00,0.60,0.061,ND
2016/11/02,15:10,0.60,0.060,ND
2016/11/02,15:20,0.60,0.068,ND
2016/11/02,15:30,0.59,0.072,ND
2016/11/02,15:40,0.57,0.075,ND
2016/11/02,15:50,0.57,0.077,ND
2016/11/02,16:00,0.57,0.064,ND
2016/11/02,16:10,0.57,0.071,ND
2016/11/02,16:20,0.58,0.060,ND
2016/11/02,16:30,0.60,0.060,ND
2016/11/02,16:40,0.61,0.056,ND
2016/11/02,16:50,0.62,0.054,ND
2016/11/02,17:00,0.61,0.057,ND
2016/11/02,17:10,0.60,0.052,ND
2016/11/02,17:20,0.59,0.056,ND
2016/11/02,17:30,0.61,0.056,ND
2016/11/02,17:40,0.59,0.062,ND
2016/11/02,17:50,0.61,0.058,ND
2016/11/02,18:00,0.59,0.071,ND
2016/11/02,18:10,0.58,0.065,ND
2016/11/02,18:20,0.62,0.061,ND
2016/11/02,18:30,0.61,0.060,ND
2016/11/02,18:40,0.64,0.060,ND
2016/11/02,18:50,0.66,0.061,ND
2016/11/02,19:00,0.72,0.051,ND
2016/11/02,19:10,0.75,0.061,ND
2016/11/02,19:20,0.73,0.065,ND
2016/11/02,19:30,0.74,0.073,ND
2016/11/02,19:40,0.75,0.077,ND
2016/11/02,19:50,0.75,0.081,ND
2016/11/02,20:00,0.72,0.085,ND
2016/11/02,20:10,0.74,0.079,ND
2016/11/02,20:20,0.76,0.086,ND
2016/11/02,20:30,0.77,0.078,ND
2016/11/02,20:40,0.76,0.082,ND
2016/11/02,20:50,0.76,0.089,ND
2016/11/02,21:00,0.79,0.089,ND
2016/11/02,21:10,0.78,0.10,ND
2016/11/02,21:20,0.77,0.092,ND
2016/11/02,21:30,0.76,0.098,ND
2016/11/02,21:40,0.77,0.089,ND
2016/11/02,21:50,0.79,0.081,ND
2016/11/02,22:00,0.78,0.076,ND
2016/11/02,22:10,0.76,0.072,ND
2016/11/02,22:20,0.74,0.070,ND
2016/11/02,22:30,0.72,0.066,ND
2016/11/02,22:40,0.72,0.066,ND
2016/11/02,22:50,0.69,0.071,ND
2016/11/02,23:00,0.68,0.075,ND
2016/11/02,23:10,0.69,0.076,ND
2016/11/02,23:20,0.72,0.075,ND
2016/11/02,23:30,0.73,0.094,ND
2016/11/02,23:40,0.77,0.089,ND
2016/11/02,23:50,0.79,0.095,ND
